This is the latest recevied weather packets stored in our database for station/object WD4IXD-WX. If no packets are shown the sender has not sent any weather packets the latest 10 day(s).
| Time | Temp. | Humidity | Pressure | Rain* | Wind** | Luminosity | Snow |
|---|---|---|---|---|---|---|---|
| 1777729504 | -2.78° C | 71% | 1024.1 hPa | 0 mm | - | 234 W/m² | - |
| 1777729204 | -2.78° C | 71% | 1024.2 hPa | 0 mm | - | 214 W/m² | - |
| 1777728904 | -3.33° C | 73% | 1024.1 hPa | 0 mm | - | 79 W/m² | - |
| 1777728604 | -3.33° C | 73% | 1024.1 hPa | 0 mm | - | 25 W/m² | - |
| 1777728304 | -3.33° C | 73% | 1024.1 hPa | 0 mm | - | 23 W/m² | - |
| 1777728003 | -3.89° C | 74% | 1024 hPa | 0 mm | - | 21 W/m² | - |
| 1777727704 | -3.33° C | 73% | 1024 hPa | 0 mm | - | 21 W/m² | - |
| 1777727404 | -3.33° C | 72% | 1024 hPa | 0 mm | - | 32 W/m² | - |
| 1777727104 | -3.33° C | 70% | 1024 hPa | 0 mm | - | 21 W/m² | - |
| 1777726804 | -2.78° C | 67% | 1023.9 hPa | 0 mm | - | 19 W/m² | - |
| 1777726504 | -2.78° C | 66% | 1023.9 hPa | 0 mm | - | 19 W/m² | - |
| 1777726203 | -2.78° C | 65% | 1023.8 hPa | 0 mm | - | 16 W/m² | - |
| 1777725904 | -2.78° C | 65% | 1023.8 hPa | 0 mm | - | 16 W/m² | - |
| 1777725603 | -2.78° C | 65% | 1023.8 hPa | 0 mm | - | 14 W/m² | - |
| 1777725304 | -2.78° C | 66% | 1023.7 hPa | 0 mm | - | 14 W/m² | - |
| 1777725004 | -2.78° C | 65% | 1023.7 hPa | 0 mm | - | 12 W/m² | - |
| 1777724704 | -2.78° C | 66% | 1023.7 hPa | 0 mm | - | 11 W/m² | - |
| 1777724404 | -2.78° C | 66% | 1023.7 hPa | 0 mm | - | 9 W/m² | - |
| 1777724104 | -2.78° C | 66% | 1023.7 hPa | 0 mm | - | 7 W/m² | - |
| 1777723804 | -3.33° C | 66% | 1023.7 hPa | 0 mm | - | 7 W/m² | - |
| 1777723504 | -3.33° C | 66% | 1023.7 hPa | 0 mm | - | 5 W/m² | - |
| 1777723204 | -3.33° C | 67% | 1023.6 hPa | 0 mm | - | 0 W/m² | - |
| 1777722904 | -3.33° C | 68% | 1023.7 hPa | 0 mm | - | 0 W/m² | - |
| 1777722604 | -3.33° C | 69% | 1023.7 hPa | 0 mm | - | 0 W/m² | - |
| 1777722304 | -3.33° C | 69% | 1023.7 hPa | 0 mm | - | 0 W/m² | - |
* Rain latest hour (hover to see other rain measurements)
** Current wind speed in m/s (hover to see current wind gust speed)